Location: Meanaryar
(48.4161°N, 4.7315°W)
Time: 17:04:25
(UTC+00:00)

ATLAS 3B R/B - Pass Details

Date: 18 September 2020
Orbit: 1016 x 1179 km, 63.8° (Epoch: 28 October)

Event Time Altitude Azimuth Distance (km) Brightness Sun altitude
Rises 21:20:00 0° 319° (NW) 3,819 6.8 -27.7°
Reaches altitude 10° 21:22:38 10° 322° (NW) 2,882 5.9 -28.1°
Maximum altitude 21:29:25 64° 44° (NE) 1,196 2.8 -28.9°
Enters shadow 21:30:03 61° 71° (ENE) 1,224 2.7 -29.0°
